Hourly Data Report for March 24, 2021

OTTAWA INTL A
ONTARIO
Current Station Operator: NAVCAN

45°19'00.000" N
75°40'00.000" W
114.90 m
6106001
71628
YOW

Download Data

Hourly Data (March 2021)
Hourly Data Report for March 24, 2021
TIME
LST
Temp Definition
°C
Dew Point Definition
°C
Rel Hum Definition
%
Precip. Amount Definition
mm

Wind Dir Definition
10's deg

Wind Spd Definition
km/h
Visibility Definition
km
Stn Press Definition
kPa
Hmdx Definition


Wind Chill Definition


Weather Definition


00:00 5.6 -0.8 64   10 11 24.1 100.55     LegendNANA
01:00 7.6 -0.1 58   13 11 24.1 100.58     Mostly Cloudy
02:00 7.5 -2.3 50   14 14 24.1 100.51     LegendNANA
03:00 7.4 -3.8 45   13 8 24.1 100.49     LegendNANA
04:00 4.0 -2.2 64   10 5 24.1 100.48     Mostly Cloudy
05:00 3.5 -1.5 70   5 8 24.1 100.47     LegendNANA
06:00 4.1 -1.8 66   4 13 24.1 100.47     LegendNANA
07:00 4.8 -1.5 64   6 7 24.1 100.47     Cloudy
08:00 6.9 -0.5 59   9 9 24.1 100.46     Rain
09:00 8.8 4.6 75   14 12 16.1 100.45     Rain
10:00 10.4 5.6 72   14 15 16.1 100.43     Rain
11:00 9.9 6.6 80   16 13 24.1 100.40     Rain
12:00 9.7 7.8 88   10 8 24.1 100.36     Rain
13:00 10.3 9.3 94   9 11 24.1 100.31     Rain
14:00 10.2 9.0 92   13 13 16.1 100.22     Rain
15:00 10.1 9.6 97   12 12 3.2 100.14     Rain, Fog
16:00 10.4 10.0 98   11 11 3.2 100.08     Rain, Fog
17:00 9.9 9.6 98   8 14 2.4 100.04     Rain, Fog
18:00 9.6 9.4 99   9 14 1.2 100.00     Fog
19:00 9.2 9.0 98   9 12 8.1 99.97     Fog
20:00 8.7 8.4 98   9 16 12.9 99.93     LegendNANA
21:00 8.9 8.7 98   11 13 16.1 99.90     LegendNANA
22:00 9.3 8.9 98   12 10 24.1 99.87     Cloudy
23:00 10.8 9.6 92   18 9 8.1 99.86     Thunderstorms,Rain Showers, Fog

Notes on Data Quality.

Legend

  • E = Estimated
  • M = Missing
  • NA = Not Available*
  • [empty] = Indicates an unobserved value
Date modified: